XW-3 (CAS-9)

Last updated on Thu Oct 30 2025 00:03:10 GMT+0000 (Coordinated Universal Time)

1 50466U 21131B 25302.49062300 .00000891 00000+0 29087-3 0 9991 2 50466 98.5072 31.1348 0005171 77.0775 283.0991 14.41019190201882
UTC large
Height (km)
Speed (km/s)
/
Latitude / Longitude
Inclination (degrees)
Orbital Period (minutes)
Azimuth
Elevation
Range (km)
Doppler Factor

Next 0 passes for location: London (51.5072 / 0.1276)

Sorry there are no passes over London.